Regional Weather Roundup
Issued by NWS

Home | Current Version | Previous Version | Text Only | Print | Product List | Glossary On
Versions: 1 2 3 4 5 6 7 8 9 10 11 12 13 14 15 16 17 18 19 20 21 22 23 24 25 26 27 28 29 30 31 32 33 34 35 36 37 38 39 40 41 42 43 44 45 46 47 48 49 50
000
ASUS43 KOAX 201502
RWRNE

WEATHER ROUNDUP FOR NEBRASKA
NATIONAL WEATHER SERVICE OMAHA NE
900 AM CST FRI JAN 20 2017

NOTES: SATELLITE DATA IS BEING USED TO AUGMENT CLOUD COVER ABOVE
       12000 FEET.
       "FAIR" INDICATES FEW OR NO CLOUDS BELOW 12,000 FEET WITH NO
       SIGNIFICANT WEATHER AND/OR OBSTRUCTIONS TO VISIBILITY.

  * THESE STATIONS DO NOT REPORT WEATHER SUCH AS RAIN...SNOW OR FOG.

NEZ001>004-019>022-054>056-201600-
NEBRASKA PANHANDLE

CITY           SKY/WX    TMP DP  RH WIND       PRES   REMARKS
SCOTTSBLUFF    CLOUDY    28  23  81 NW9       29.44R WCI  19
ALLIANCE       CLOUDY    25  22  88 W9        29.40F WCI  15
CHADRON        CLOUDY    25  20  81 SW8       29.42F WCI  16
KIMBALL        CLOUDY    35  29  78 W12       29.46R WCI  27
SIDNEY         CLOUDY    31  26  82 W8        29.45R WCI  23
$$

NEZ057>060-069>072-079>082-201600-
SOUTHWEST NEBRASKA

CITY           SKY/WX    TMP DP  RH WIND       PRES   REMARKS
NORTH PLATTE   CLOUDY    34  31  88 CALM      29.46F FOG
IMPERIAL       FOG       28  27  96 CALM      29.46S VSB 3/4
LEXINGTON      CLOUDY    36  35  96 CALM      29.47F FOG
MCCOOK         CLOUDY    34  34 100 NW3       29.47S FOG
OGALLALA       FOG      N/A N/A N/A CALM      29.46F VSB 1/4
$$

NEZ005>010-023>029-035>040-094-201600-
NORTH CENTRAL NEBRASKA

CITY           SKY/WX    TMP DP  RH WIND       PRES   REMARKS
VALENTINE      CLOUDY    26  22  84 W5        29.39R WCI  20
AINSWORTH      CLEAR     29  28  92 S10       29.41S WCI  20
BROKEN BOW     PTCLDY    32  31  96 S6        29.46R FOG     WCI  26
O`NEILL        CLEAR     33  33  99 S9        29.45S WCI  26
ORD            CLEAR     32  30  92 E3        29.46F FOG
THEDFORD       CLOUDY    30  30  99 SW7       29.42F FOG     WCI  24
$$

NEZ041-046>049-061>064-073>077-083>087-201600-
SOUTH CENTRAL NEBRASKA

CITY           SKY/WX    TMP DP  RH WIND       PRES   REMARKS
GRAND ISLAND   FOG       37  37 100 S8        29.51R VSB 1/4 WCI  31
AURORA         FOG       36  36 100 S3        29.51S VSB<1/4
HASTINGS       FOG       38  38 100 S5        29.51F VSB 1/4 WCI  34
HEBRON         CLOUDY    38  38  99 CALM      29.51F FOG
HOLDREGE       FOG       36  35  97 SE3       29.47F VSB 1/4
KEARNEY *      CLOUDY    36  34  93 S5        29.48F VSB<1/4 WCI  32
YORK           FOG       37  37 100 S6        29.53S VSB<1/4 WCI  33
$$

NEZ011>018-030>034-042>045-201600-
NORTHEAST NEBRASKA

CITY           SKY/WX    TMP DP  RH WIND       PRES   REMARKS
NORFOLK        CLOUDY    38  37  97 S7        29.51S FOG     WCI  33
ALBION         FOG      N/A N/A N/A S8        29.50F VSB 1/2
BLAIR          CLOUDY    40  40  98 SE5       29.56F FOG
FREMONT        CLOUDY    39  39 100 CALM      29.56F FOG
TEKAMAH        CLOUDY    36  35  96 SE5       29.57F FOG     WCI  32
WAYNE          CLOUDY    38  38  99 S9        29.53S FOG     WCI  31
$$

NEZ050>053-065>068-078-088>093-201600-
SOUTHEAST NEBRASKA

CITY           SKY/WX    TMP DP  RH WIND       PRES   REMARKS
LINCOLN        FOG       39  39 100 SE3       29.56F VSB<1/4
OMAHA EPPLEY   DRIZZLE   40  36  86 S5        29.58S FOG
BEATRICE       CLOUDY    40  40 100 E3        29.54F
FALLS CITY     FOG       40  40 100 N5        29.55F VSB<1/4
NEBRASKA CITY  FOG       38  38 100 S3        29.57S VSB 1/4
PLATTSMOUTH    FOG       39  37  93 SE5       29.57S VSB 1/4
$$

NEZ044-045-051>053-067-201600-
OMAHA AREA

CITY           SKY/WX    TMP DP  RH WIND       PRES   REMARKS
OMAHA EPPLEY   DRIZZLE   40  36  86 S5        29.58S FOG
BLAIR          CLOUDY    40  40  98 SE5       29.56F FOG
FREMONT        CLOUDY    39  39 100 CALM      29.56F FOG
MILLARD        CLOUDY    42  41  97 SE5       29.57S FOG
OFFUTT AFB     FOG       39  39 100 NE5       29.57S VSB 1
PLATTSMOUTH    FOG       39  37  93 SE5       29.57S VSB 1/4
WAHOO          FOG       37  36  97 E3        29.56S VSB 1/4
$$




USA.gov is the U.S. government's official web portal to all federal, state and local government web resources and services.